DLH52J LFMN-EDDF

Flight info

Callsign DLH52J
Flight time N/A
Altitude 43000
Route BASIP DCT ANAKI DCT ABESI DCT LADOL T163 EMPAX EMPAX5B
Aircraft A359/H-SDE2E3GHIJ3J4J5LM1ORWXY/LB1D1

Departure

Time 2026-05-04 16:03
Airport Nice-Côte d'Azur Airport (LFMN)

Arrival

Time N/A
Airport Frankfurt Main Airport (EDDF)
Time Latitude Longitude Altitude Speed Heading
2026-05-04 15:18 43.66410 7.21331 27 ft 0 kts 350°
2026-05-04 15:46 43.66397 7.21334 27 ft 4 kts 351°
2026-05-04 15:47 43.66375 7.21339 27 ft 3 kts 350°
2026-05-04 15:47 43.66352 7.21351 25 ft 4 kts 304°
2026-05-04 15:47 43.66347 7.21382 25 ft 4 kts 261°
2026-05-04 15:47 43.66351 7.21417 27 ft 4 kts 261°
2026-05-04 15:48 43.66351 7.21421 26 ft 4 kts 261°
2026-05-04 15:48 43.66349 7.21403 26 ft 0 kts 261°
2026-05-04 15:51 43.66348 7.21398 25 ft 3 kts 259°
2026-05-04 15:51 43.66324 7.21363 25 ft 6 kts 214°
2026-05-04 15:51 43.66277 7.21325 27 ft 9 kts 214°
2026-05-04 15:52 43.66222 7.21254 27 ft 12 kts 225°
2026-05-04 15:52 43.66153 7.21160 27 ft 15 kts 225°
2026-05-04 15:52 43.66087 7.21069 27 ft 13 kts 223°
2026-05-04 15:52 43.65998 7.21058 27 ft 15 kts 166°
2026-05-04 15:53 43.65900 7.21064 27 ft 16 kts 212°
2026-05-04 15:53 43.65812 7.20950 27 ft 19 kts 227°
2026-05-04 15:53 43.65717 7.20882 27 ft 16 kts 179°
2026-05-04 15:53 43.65596 7.20904 28 ft 19 kts 170°
2026-05-04 15:54 43.65463 7.20935 27 ft 20 kts 169°
2026-05-04 15:54 43.65340 7.20938 27 ft 18 kts 211°
2026-05-04 15:54 43.65245 7.20807 27 ft 21 kts 225°
2026-05-04 15:54 43.65135 7.20657 28 ft 22 kts 224°
2026-05-04 15:55 43.65027 7.20507 28 ft 20 kts 225°
2026-05-04 15:55 43.64926 7.20368 28 ft 21 kts 223°
2026-05-04 15:55 43.64822 7.20228 28 ft 14 kts 226°
2026-05-04 15:55 43.64737 7.20196 28 ft 13 kts 150°
2026-05-04 15:56 43.64703 7.20277 30 ft 8 kts 72°
2026-05-04 15:56 43.64718 7.20309 30 ft 0 kts 52°
2026-05-04 15:57 43.64719 7.20309 30 ft 1 kts 52°
2026-05-04 15:58 43.64729 7.20326 30 ft 0 kts 48°
2026-05-04 16:02 43.64756 7.20366 30 ft 24 kts 46°
2026-05-04 16:02 43.65735 7.21690 185 ft 152 kts 46°
2026-05-04 16:03 43.66573 7.22574 1073 ft 149 kts 41°
2026-05-04 16:03 43.67215 7.23605 1971 ft 145 kts 70°
2026-05-04 16:03 43.67159 7.25081 2398 ft 170 kts 115°
2026-05-04 16:03 43.66194 7.26195 2800 ft 202 kts 159°
2026-05-04 16:04 43.64755 7.26635 3422 ft 219 kts 164°
2026-05-04 16:04 43.62465 7.28975 5195 ft 209 kts 109°
2026-05-04 16:04 43.62479 7.30955 5998 ft 215 kts 69°
2026-05-04 16:05 43.63255 7.32765 6848 ft 223 kts 63°
2026-05-04 16:05 43.63853 7.34748 7737 ft 225 kts 76°
2026-05-04 16:05 43.64768 7.39012 9448 ft 238 kts 76°
2026-05-04 16:06 43.65326 7.41214 10251 ft 247 kts 72°
2026-05-04 16:06 43.67016 7.47314 12400 ft 263 kts 72°
2026-05-04 16:07 43.67878 7.50528 13344 ft 279 kts 71°
2026-05-04 16:07 43.70143 7.59020 14504 ft 346 kts 71°
2026-05-04 16:08 43.70994 7.62227 14868 ft 366 kts 71°
2026-05-04 16:08 43.74134 7.72437 16639 ft 400 kts 53°
2026-05-04 16:09 43.77830 7.78343 18161 ft 411 kts 48°
2026-05-04 16:09 43.81686 7.84325 19613 ft 420 kts 48°
2026-05-04 16:10 43.85586 7.90434 21172 ft 427 kts 48°
2026-05-04 16:11 43.91054 8.00350 23505 ft 437 kts 59°
2026-05-04 16:11 43.92597 8.04015 24123 ft 442 kts 60°
2026-05-04 16:12 43.97142 8.15423 25689 ft 461 kts 61°
2026-05-04 16:12 44.01929 8.27329 27281 ft 478 kts 60°
2026-05-04 16:13 44.05227 8.35475 28277 ft 489 kts 60°
2026-05-04 16:13 44.08577 8.43763 29217 ft 501 kts 59°
2026-05-04 16:14 44.12025 8.52321 30129 ft 512 kts 60°
2026-05-04 16:14 44.15581 8.61024 30986 ft 519 kts 56°
2026-05-04 16:15 44.23381 8.71213 32241 ft 514 kts 23°
2026-05-04 16:16 44.30040 8.74123 33192 ft 501 kts
2026-05-04 16:16 44.40476 8.75871 34217 ft 507 kts
2026-05-04 16:17 44.47483 8.76890 35082 ft 505 kts
2026-05-04 16:18 44.57952 8.78508 36286 ft 502 kts
2026-05-04 16:18 44.61426 8.79059 36689 ft 502 kts
2026-05-04 16:19 44.71777 8.80708 37790 ft 500 kts
2026-05-04 16:19 44.78699 8.81815 38471 ft 499 kts
2026-05-04 16:20 44.89017 8.83465 39269 ft 498 kts
2026-05-04 16:20 44.95926 8.84572 39694 ft 499 kts
2026-05-04 16:21 45.06081 8.86207 40349 ft 499 kts
2026-05-04 16:22 45.12990 8.87322 40764 ft 499 kts
2026-05-04 16:22 45.23357 8.89000 41325 ft 500 kts
2026-05-04 16:23 45.33727 8.90685 41790 ft 502 kts
2026-05-04 16:24 45.47627 8.92954 42525 ft 501 kts
2026-05-04 16:25 45.54526 8.94084 42789 ft 502 kts
2026-05-04 16:26 45.68450 8.96373 43074 ft 502 kts
2026-05-04 16:28 45.96071 9.00950 43074 ft 498 kts
2026-05-04 16:29 46.20157 9.04080 43077 ft 494 kts 356°
2026-05-04 16:31 46.37365 9.03369 43082 ft 494 kts 355°
2026-05-04 16:32 46.57999 9.02461 43076 ft 495 kts 355°
2026-05-04 16:33 46.71749 9.01863 43053 ft 496 kts 355°
2026-05-04 16:34 46.82068 9.01408 43034 ft 495 kts 355°
2026-05-04 16:35 46.99301 9.00645 42998 ft 497 kts 355°